Wind_Speed
31 31 30 29 28 27 26 21 18 19 17 11 13 20 21 17 18 19 16 15 14 14 16 15 14 14 15 18 23 27 25 20 21 21 19 18 17 18 19 18 17 16 16 15 15 15 15 14 14 13 13 13 14 14 14 14 14 13 12 12 10 8 7 6 6 6 7 8 8 8 7 6 6 7 7 7 7 8 8 8 8 9 10 11 11 12
33 33 31 28 27 26 26 25 23 24 23 19 13 16 21 17 16 18 18 16 14 14 15 15 15 12 11 15 21 25 24 21 22 21 19 18 17 18 19 19 17 16 16 16 15 15 16 15 15 14 13 13 14 14 14 14 14 13 13 12 10 8 7 6 6 6 7 8 9 9 8 6 5 6 7 7 7 7 7 7 8 8 9 10 11 12
34 33 31 28 27 27 28 30 30 28 24 18 12 15 19 17 16 17 16 16 15 14 14 13 16 12 9 12 18 23 26 25 25 23 22 22 20 19 19 19 18 17 16 16 16 16 16 16 16 15 14 14 13 13 13 14 14 13 13 12 11 9 7 7 6 7 8 8 9 10 9 8 6 6 6 7 7 7 7 8 8 8 9 10 11 12
34 32 30 29 29 29 32 34 32 29 25 19 15 16 17 15 15 16 16 16 15 15 14 12 13 12 11 13 17 21 26 27 26 24 23 23 22 20 19 19 19 18 17 17 17 17 17 16 16 16 15 14 14 13 14 14 14 14 13 12 11 9 8 7 8 8 8 9 9 10 9 8 7 6 6 7 8 8 8 8 8 8 9 9 10 11
32 30 30 30 30 32 34 34 33 33 30 24 18 15 16 15 10 12 15 17 16 16 13 11 11 12 13 15 16 19 25 27 25 24 23 22 21 20 19 19 20 20 19 18 18 18 17 17 17 17 16 15 15 15 15 15 15 14 13 13 11 9 8 8 9 9 9 9 9 9 8 8 8 6 6 7 7 8 8 8 8 9 9 9 9 10
31 31 32 33 31 32 34 33 34 36 32 26 21 15 15 16 10 10 14 16 17 17 14 11 10 11 13 16 17 20 23 25 23 24 25 22 21 21 19 20 21 22 20 19 19 19 18 18 18 17 17 16 16 15 15 15 15 15 14 13 11 10 9 9 9 9 9 9 9 8 8 7 7 7 6 7 7 7 7 8 8 9 10 10 9 9
32 33 35 34 33 35 37 35 34 36 33 27 23 18 15 17 16 11 13 13 14 16 17 15 12 11 11 12 17 20 22 23 21 23 26 24 23 22 21 20 21 22 21 19 19 19 19 19 18 18 18 17 17 16 15 15 14 14 14 13 12 11 10 10 10 9 9 9 9 9 8 8 7 7 7 7 7 6 7 8 8 8 9 10 9 8
33 34 34 34 36 37 37 36 33 34 36 28 19 20 19 19 19 14 10 9 9 14 17 16 15 15 12 11 14 18 22 24 21 21 26 27 26 24 22 21 21 22 22 21 20 19 19 20 20 19 19 18 17 16 15 15 15 14 14 13 12 12 11 11 11 9 9 9 9 10 9 9 7 7 7 6 6 6 7 8 7 7 8 9 8 8
33 32 33 33 35 37 36 36 32 31 37 28 15 20 23 21 21 14 9 8 9 13 16 16 18 19 16 13 12 15 19 25 24 21 24 25 24 24 25 25 22 21 23 22 21 20 20 21 21 20 19 18 17 16 16 15 15 14 14 13 13 13 12 12 11 10 9 9 10 10 10 9 8 7 7 7 6 5 6 7 7 7 7 8 8 8
30 30 33 32 31 35 37 37 31 27 34 30 21 22 20 20 24 17 11 13 14 15 13 12 17 19 18 16 12 13 17 23 27 25 24 23 20 19 23 25 23 22 23 24 22 22 22 21 21 21 20 19 18 17 16 15 15 14 14 14 14 13 13 13 12 11 10 10 10 11 11 10 9 8 7 7 6 5 5 6 6 7 7 7 7 7
20 27 36 35 27 25 29 35 34 29 32 30 25 23 17 17 23 20 16 17 16 17 14 10 17 20 19 19 14 13 15 19 26 28 27 25 22 20 22 23 23 23 23 24 24 23 23 21 21 22 22 21 20 18 17 16 15 15 15 15 14 14 14 13 12 11 11 11 11 12 12 11 10 8 8 8 7 6 6 6 6 6 6 7 6 6
24 26 34 38 31 24 23 26 30 31 34 33 24 22 21 19 19 18 17 18 16 17 15 12 18 21 21 23 19 14 14 16 23 30 29 27 25 24 24 24 22 22 22 23 24 24 23 22 21 22 22 22 20 18 18 17 16 16 15 15 15 15 15 14 13 12 12 12 12 13 13 12 10 9 8 8 8 8 7 7 6 6 6 6 6 5
35 27 28 35 37 32 24 20 27 35 39 40 28 21 23 19 16 17 16 16 17 15 14 14 20 24 22 23 22 16 12 13 21 29 30 28 27 26 26 24 23 23 22 22 23 23 23 23 22 22 22 23 21 20 19 17 17 16 16 16 16 15 15 14 14 13 13 13 13 14 14 13 12 10 9 9 9 9 8 8 7 6 6 5 5 5
33 25 25 34 34 35 34 24 24 33 38 42 33 22 22 20 16 17 14 14 14 12 14 17 22 26 23 21 22 20 15 13 18 25 27 27 27 27 28 26 24 24 23 23 24 23 23 24 23 22 22 22 22 21 19 18 17 17 17 17 16 16 15 14 14 14 14 14 14 15 15 14 13 11 10 10 9 10 9 8 8 7 6 6 5 5
29 24 25 31 27 32 44 31 17 24 35 43 39 24 19 19 14 12 11 12 13 11 15 19 22 26 25 22 22 22 21 18 18 21 25 26 25 26 29 29 27 25 24 25 25 25 26 24 21 22 22 22 22 21 21 19 19 18 18 18 17 16 16 15 15 15 15 15 15 16 17 16 14 13 12 11 11 10 10 9 8 8 7 6 6 5
23 19 24 31 27 29 40 35 27 29 32 39 43 32 21 18 15 12 14 13 11 13 18 21 24 26 24 22 22 22 23 21 20 21 23 25 24 23 24 26 28 25 22 24 25 25 26 23 21 21 21 21 21 21 21 20 20 20 19 19 18 17 16 16 15 15 15 16 16 17 18 17 16 14 13 12 12 11 11 10 9 8 7 7 6 5
16 17 27 35 34 32 32 34 38 36 28 29 39 41 33 21 16 13 16 15 13 16 23 25 26 27 24 23 22 22 24 22 21 23 22 22 22 21 20 22 27 26 20 19 23 25 25 23 21 21 21 21 21 21 21 21 20 20 20 19 19 18 17 16 16 16 15 16 17 18 18 18 17 16 15 14 13 12 12 11 9 8 7 7 6 5
17 22 31 31 31 32 32 36 42 39 32 26 27 37 40 27 18 20 21 20 19 21 28 30 29 28 26 25 24 22 23 23 22 22 20 20 19 18 19 20 23 23 17 14 20 26 25 22 20 19 20 20 20 21 22 21 20 20 20 20 19 19 18 18 17 16 16 16 17 18 19 19 18 17 17 15 14 13 13 12 10 9 8 8 7 6
16 22 31 31 30 32 35 38 39 38 37 33 30 35 38 28 22 27 29 24 21 22 30 34 32 31 30 29 28 25 23 25 25 22 19 18 18 18 19 19 19 19 16 12 15 21 21 19 18 19 19 21 22 23 23 23 22 21 21 21 20 20 19 18 17 17 17 17 18 19 20 20 19 18 18 17 17 16 15 14 12 10 10 9 9 8
17 13 18 24 29 33 37 37 36 36 36 37 35 32 31 27 21 26 30 26 22 22 30 34 32 31 32 31 31 30 28 27 27 24 21 19 19 19 19 20 19 18 17 14 13 16 18 18 18 20 21 22 22 23 23 24 23 23 23 22 21 21 20 19 18 18 18 19 19 20 20 21 20 19 19 19 19 18 17 15 14 12 12 11 11 10
19 9 8 15 25 33 35 34 33 33 31 32 33 31 33 29 17 18 27 27 24 20 26 35 34 31 31 31 33 35 32 28 24 23 23 22 21 21 20 21 21 19 19 16 14 15 17 17 17 19 21 20 20 19 19 20 22 23 23 23 22 22 22 21 21 21 21 20 20 21 21 22 21 21 20 20 20 20 19 17 16 15 14 14 13 12
21 15 9 10 18 23 25 29 33 35 34 33 32 32 35 31 18 14 22 25 21 15 22 31 33 32 32 30 30 31 29 28 24 23 24 24 23 24 23 22 22 22 22 19 16 17 17 17 16 17 18 18 19 19 19 21 22 22 23 24 22 22 23 23 23 23 23 22 22 22 23 23 23 22 21 21 21 21 20 19 17 16 16 16 15 13
25 22 14 6 6 10 17 30 37 38 40 40 37 32 30 29 19 12 18 24 22 20 24 25 25 29 31 29 29 28 26 27 25 23 25 25 25 26 26 25 24 23 24 23 20 19 19 19 18 17 18 19 21 21 22 24 24 23 24 25 23 22 23 23 24 24 24 24 23 24 25 24 24 23 22 22 22 22 21 20 19 18 17 17 16 15
31 24 18 15 10 12 22 33 37 37 38 41 41 36 31 28 24 20 24 32 30 25 25 25 27 30 29 28 29 29 29 28 25 24 25 26 26 27 28 28 27 25 25 25 24 22 22 21 20 20 20 21 21 21 21 24 27 26 26 26 24 23 24 25 25 25 25 24 25 26 26 26 25 24 23 22 23 23 23 22 21 19 19 18 17 16
34 25 23 21 16 19 27 30 33 36 36 36 36 37 34 33 32 31 31 34 34 28 25 27 31 33 31 29 28 28 30 29 26 24 25 26 27 28 30 30 29 27 26 25 26 26 25 24 23 23 22 22 22 21 20 22 25 26 25 26 26 26 27 28 28 28 26 25 25 26 28 28 27 25 24 23 23 23 24 23 22 21 20 19 18 18
33 32 31 25 18 19 22 21 25 34 37 38 38 39 40 37 35 36 35 33 36 36 33 31 31 30 30 31 30 31 33 31 27 25 25 26 28 29 30 31 30 28 27 26 27 27 27 27 26 26 25 25 24 23 21 21 22 23 23 24 26 27 29 30 30 30 28 26 26 26 29 31 29 27 25 24 24 24 24 24 23 23 22 21 20 19
29 31 33 31 26 24 21 19 24 31 36 39 39 40 42 41 38 39 38 35 37 40 39 37 34 30 28 28 29 33 35 32 28 27 27 27 29 30 30 31 31 29 27 27 27 28 28 28 28 28 28 28 28 26 25 23 22 23 23 24 25 27 30 31 30 30 29 29 29 29 31 33 31 29 28 26 25 25 24 24 24 24 24 22 21 21
26 27 31 33 30 26 25 23 25 29 29 29 34 39 41 42 41 39 36 35 39 41 41 41 39 36 33 30 28 29 31 31 27 25 27 29 30 32 32 31 31 30 29 29 29 30 30 30 29 30 30 30 29 27 26 25 23 23 23 24 25 26 29 30 30 29 29 31 32 32 34 34 34 32 30 28 27 26 24 24 24 25 25 24 23 22
26 23 26 30 29 26 24 22 25 29 27 24 32 43 43 40 40 38 35 36 40 42 43 43 41 40 38 35 31 27 27 30 28 25 26 28 31 33 35 34 33 32 31 31 31 32 33 32 31 30 30 31 30 28 26 24 23 22 24 26 26 26 27 29 30 30 30 30 31 33 34 34 33 34 32 30 28 27 25 25 25 25 25 25 25 24
26 23 25 30 34 32 27 24 24 28 30 28 33 41 42 40 41 41 41 42 43 42 43 44 42 41 40 39 37 31 28 29 30 27 26 26 29 32 35 36 36 35 34 34 34 34 35 34 33 32 32 32 32 32 29 26 23 22 23 25 26 26 27 28 28 29 31 32 32 32 32 32 31 31 32 30 29 28 27 26 25 25 26 26 26 25
26 28 29 30 31 30 29 27 25 26 30 30 31 34 36 36 38 41 43 45 44 41 41 43 44 43 43 41 39 36 34 34 34 32 30 29 29 30 33 35 37 37 37 37 37 37 37 37 36 35 35 35 35 35 34 32 29 24 21 23 25 26 27 28 28 29 32 34 33 32 32 32 31 31 30 29 28 28 29 28 27 26 26 26 26 26
23 28 30 27 25 25 28 28 27 28 30 29 30 33 32 31 32 35 37 39 41 39 39 42 44 45 46 44 40 37 36 37 37 36 35 33 32 31 32 34 36 38 39 40 40 39 40 40 39 38 37 37 37 38 38 37 35 30 24 22 23 25 26 27 28 30 32 34 35 33 32 33 33 32 29 28 28 27 27 27 27 27 26 26 26 26
22 26 25 25 23 21 24 28 29 31 31 28 30 33 33 30 29 31 35 39 40 39 37 39 42 43 44 43 41 39 37 37 37 36 36 36 36 35 34 34 36 38 40 41 41 42 42 42 42 41 39 39 39 40 41 40 39 36 30 26 25 26 26 26 27 29 29 31 32 32 31 32 33 33 31 30 30 29 27 28 29 28 28 28 28 28
22 22 21 23 20 15 20 29 31 31 30 29 31 35 35 33 30 30 35 39 40 39 37 37 40 41 41 41 41 40 39 38 38 37 37 37 38 39 38 37 37 39 41 42 42 43 44 44 45 44 43 42 41 42 43 42 41 39 35 31 29 29 28 28 29 30 30 30 29 29 31 33 34 34 33 32 32 32 31 32 32 30 30 30 30 30
19 19 20 22 19 15 21 29 29 28 29 32 35 37 37 35 33 33 37 40 40 38 35 36 39 40 41 42 42 40 39 40 40 40 40 40 40 41 41 41 40 41 42 44 44 45 45 46 46 46 45 45 44 43 43 42 42 41 38 36 34 32 31 31 32 32 32 33 30 28 30 32 34 34 34 33 33 34 34 36 36 35 34 33 32 32
16 18 19 19 18 19 24 26 23 24 28 32 35 35 35 35 35 35 36 40 41 38 35 37 38 38 40 43 42 41 42 43 42 41 42 42 43 44 44 43 43 44 44 45 46 47 47 47 48 48 47 46 46 46 45 44 43 43 41 39 37 36 34 34 35 35 34 35 34 30 29 31 34 36 35 35 35 36 37 37 37 36 34 31 29 30
14 14 15 16 19 23 25 21 17 20 24 27 30 32 32 33 34 34 36 40 42 40 38 40 40 39 40 41 41 43 46 47 45 44 44 44 45 46 47 45 46 46 46 46 47 48 48 49 50 50 50 48 47 47 47 46 45 45 44 43 41 39 37 36 37 37 36 36 36 34 31 31 33 35 36 36 37 37 37 36 35 34 32 29 27 27
14 14 13 15 18 21 22 19 16 18 21 25 28 30 29 30 32 32 33 38 43 42 41 42 42 42 43 42 43 44 44 46 48 48 48 48 47 46 47 48 48 48 49 49 48 48 49 50 51 52 52 51 50 49 49 48 47 46 47 46 45 43 41 40 39 38 37 38 38 37 36 34 33 33 34 37 38 37 34 31 32 32 30 28 27 27
16 16 16 17 18 19 21 20 18 17 20 25 28 27 25 26 28 29 30 35 40 40 39 41 43 44 45 46 47 44 41 44 50 50 50 51 50 47 48 50 50 50 51 51 50 49 50 50 51 52 53 53 52 52 51 51 49 48 48 48 49 47 45 44 42 40 39 39 39 39 38 38 36 33 33 35 37 37 34 31 31 32 31 29 28 27
18 18 19 20 20 21 21 22 21 22 24 27 27 26 25 24 25 27 29 32 36 36 35 37 42 45 46 47 47 46 45 48 51 50 50 52 52 49 48 49 51 52 53 53 52 52 53 52 52 53 54 54 54 54 54 53 52 52 50 50 51 51 49 48 47 45 42 42 42 42 41 40 39 38 37 36 35 35 35 33 32 32 30 29 29 29
19 20 20 21 21 22 23 23 23 26 28 28 28 28 27 26 27 30 31 32 34 35 34 35 39 42 44 43 43 46 48 49 51 51 51 52 52 51 49 49 50 52 53 54 54 53 53 53 54 54 55 55 56 56 56 55 55 55 54 53 53 53 53 52 51 49 47 45 44 45 45 44 42 41 41 40 37 35 34 33 32 30 28 27 28 29
19 20 21 21 21 22 24 23 22 25 28 29 29 29 28 28 31 33 33 33 34 35 34 35 36 38 39 39 40 43 44 45 47 51 52 53 53 53 53 53 52 52 53 53 53 53 52 53 53 55 55 56 57 57 57 57 57 58 58 57 56 56 56 56 55 54 51 49 46 46 47 46 44 42 41 42 41 38 36 35 34 32 28 28 30 30
20 20 20 21 21 22 24 24 24 27 29 29 29 30 30 31 32 33 34 35 36 37 37 37 36 36 38 38 39 39 40 40 43 46 49 50 52 53 54 54 54 55 56 56 55 54 53 53 53 54 55 57 57 57 58 58 58 59 59 60 59 58 58 58 58 57 56 53 50 48 48 48 46 44 43 42 42 41 39 38 37 35 32 31 32 33
22 22 22 23 24 25 26 27 28 29 29 28 29 30 30 30 30 31 32 34 36 37 39 40 39 39 40 41 41 40 40 41 41 42 44 46 48 50 51 51 52 55 56 57 57 56 55 55 55 55 56 57 58 58 58 59 58 59 59 61 61 61 61 61 61 60 59 57 55 53 51 50 49 47 46 46 45 44 42 41 41 39 36 35 35 35
24 24 24 24 25 27 28 29 29 30 30 30 30 29 29 29 29 30 31 32 33 34 37 40 41 41 41 42 44 44 44 44 43 43 43 44 46 47 48 48 49 50 52 54 56 56 57 57 57 57 57 58 58 59 59 60 60 59 59 60 61 62 63 64 65 64 62 61 60 58 56 54 52 51 50 50 50 48 47 45 44 43 41 39 39 39
25 23 24 25 26 27 28 29 29 30 31 32 31 31 30 31 32 33 33 33 33 33 33 34 36 39 40 42 44 46 46 46 45 45 46 46 46 47 48 48 48 48 49 51 53 54 56 57 57 58 58 58 59 60 60 61 61 61 60 60 61 62 63 64 66 67 67 65 64 63 61 60 58 55 54 53 53 53 51 50 49 48 46 44 43 42
26 25 25 27 28 28 29 29 29 30 32 33 32 32 33 33 33 34 35 36 36 35 35 34 33 35 37 39 40 42 44 44 45 45 46 47 48 49 50 50 50 49 49 50 51 52 53 55 56 57 58 59 59 60 61 62 62 62 62 62 62 62 62 63 65 67 68 69 69 67 66 65 63 62 60 58 57 56 55 54 53 53 52 50 47 46
27 26 26 28 29 30 31 32 32 32 32 33 33 33 34 34 34 35 37 38 39 38 38 37 37 37 38 38 37 38 39 41 42 42 43 45 47 49 50 51 52 51 51 52 52 52 52 53 55 56 57 58 59 60 61 62 62 63 64 64 64 64 63 63 63 65 67 69 71 71 70 68 67 66 65 63 62 61 60 58 57 57 57 56 54 52
28 27 28 29 30 31 33 34 35 35 35 35 36 36 36 36 36 36 36 38 40 40 40 40 41 41 41 41 39 38 38 39 40 39 40 41 43 45 47 49 50 51 51 52 53 54 54 54 55 56 56 58 59 60 61 61 62 63 64 65 65 66 65 65 65 64 65 66 68 70 71 71 70 69 67 67 67 66 64 63 62 61 61 61 61 59
30 31 32 32 31 32 33 35 36 37 36 36 36 36 37 38 39 38 37 37 39 40 41 42 42 43 43 44 42 41 41 41 40 39 39 39 39 40 41 43 45 46 48 49 51 53 54 55 56 57 57 58 59 60 61 62 62 63 64 65 66 67 67 67 67 66 66 66 66 68 70 72 72 71 70 69 69 69 68 67 66 66 65 65 65 65
33 33 33 33 33 34 35 36 37 37 37 38 38 38 38 38 39 40 40 39 39 40 41 42 43 44 45 46 45 44 44 44 43 41 41 40 39 39 39 40 41 42 43 45 47 49 51 53 55 57 58 59 60 61 62 62 63 64 64 65 66 67 67 68 68 68 68 67 67 67 68 70 71 72 72 71 71 70 70 70 69 69 69 69 68 69
Wind_Direction
211 211 211 209 207 201 193 192 201 199 187 194 220 215 210 221 232 226 220 224 223 212 214 223 225 228 222 209 208 201 188 186 190 192 197 195 193 198 198 199 198 196 195 192 187 180 175 173 173 175 172 170 171 171 171 171 173 175 173 172 169 165 160 153 146 141 139 140 141 139 136 130 119 114 108 99 91 86 83 78 74 74 76 83 89 92
212 212 211 210 208 200 193 194 202 207 198 185 195 215 211 216 231 230 221 220 226 221 217 222 222 221 212 207 212 204 187 183 191 195 199 199 198 198 199 202 200 198 199 196 193 187 179 174 175 178 175 174 176 176 176 176 177 180 177 176 171 165 162 159 156 153 150 148 148 146 140 135 127 120 118 108 97 95 96 94 88 83 82 84 89 91
212 211 211 209 207 199 194 197 202 206 205 190 190 209 208 212 225 230 222 218 225 223 219 223 222 215 203 215 220 206 194 191 196 201 200 198 200 199 198 203 201 200 201 200 198 193 185 178 176 179 179 177 179 179 181 181 182 183 182 179 175 169 166 167 170 167 163 159 157 153 144 141 140 130 127 120 110 112 111 105 100 94 87 86 90 93
212 211 212 210 207 200 197 201 201 202 206 201 200 204 201 205 223 233 223 214 212 210 215 220 220 213 200 214 224 210 199 195 194 198 201 199 196 195 199 202 202 203 203 201 200 196 190 186 181 180 180 179 180 182 184 185 186 187 185 183 180 177 172 175 182 179 173 168 164 158 149 146 147 138 132 126 120 122 118 108 104 98 92 89 89 93
210 208 211 213 210 204 202 203 203 204 206 203 196 196 200 195 208 235 217 205 205 202 211 222 222 220 206 207 220 213 200 197 195 192 196 199 195 196 200 200 202 204 202 199 199 198 194 192 189 184 181 182 183 185 187 188 189 190 188 186 185 184 183 185 190 187 179 174 169 160 151 150 148 142 133 123 120 121 115 107 102 98 95 93 89 92
207 205 209 211 212 209 205 205 205 204 204 206 200 188 197 192 188 240 226 208 210 208 213 225 226 227 219 208 208 208 200 198 201 197 197 198 195 199 203 202 204 205 201 198 197 198 197 195 194 190 185 185 186 188 191 191 192 193 190 190 189 189 193 196 197 192 184 176 169 160 154 155 153 149 139 127 128 122 110 107 104 100 98 96 92 93
206 205 207 209 212 210 208 208 207 203 201 207 205 194 199 188 180 217 228 212 216 216 214 217 223 227 228 220 211 210 205 203 208 204 201 200 196 199 202 201 203 204 200 199 198 198 198 199 198 196 191 189 190 191 193 194 194 196 194 194 193 191 197 203 202 196 189 180 169 163 163 164 163 157 147 140 142 130 114 112 109 103 99 97 96 94
207 207 207 209 214 213 212 213 210 203 201 202 203 207 206 188 185 200 203 201 224 227 218 215 227 232 231 232 224 220 214 211 214 206 199 203 204 203 203 204 207 206 201 198 199 197 199 204 203 201 198 195 194 192 194 196 196 198 198 197 196 193 198 205 205 199 192 186 173 169 171 170 171 168 158 151 149 135 120 118 113 106 100 99 99 95
206 208 209 210 215 214 211 213 213 206 200 195 195 214 214 202 200 196 187 202 220 224 221 219 228 231 231 232 226 226 223 217 217 208 201 206 206 200 200 208 211 205 201 200 200 198 201 207 207 205 203 200 199 195 194 198 198 199 200 200 199 197 199 203 204 200 195 191 180 177 179 177 177 175 168 163 158 145 131 124 119 113 106 105 104 99
206 209 209 208 212 216 212 208 211 207 197 195 198 203 208 215 210 197 196 206 209 213 208 218 235 234 232 233 226 229 230 224 222 215 207 209 207 200 199 203 203 199 201 202 201 200 201 206 209 207 206 204 203 198 195 197 198 200 201 201 201 201 202 202 202 199 195 194 187 184 186 184 181 179 175 173 168 160 145 130 124 123 117 114 111 106
206 218 215 208 204 212 212 207 210 208 195 196 204 199 198 214 210 207 210 201 204 212 188 195 245 243 233 230 227 236 236 230 227 218 212 210 207 206 202 199 201 202 202 201 201 203 202 205 210 209 207 207 206 200 196 195 196 199 201 203 204 204 205 203 200 198 195 194 191 191 193 190 186 182 181 179 174 172 163 144 135 132 128 125 123 120
199 215 219 211 204 206 204 202 211 212 200 196 201 205 208 209 206 211 217 207 209 212 185 191 241 241 232 229 228 239 240 231 226 215 211 213 210 209 207 202 204 204 204 204 202 204 203 204 210 212 210 209 208 203 199 196 195 196 200 202 204 206 207 204 200 196 194 193 192 195 198 195 190 186 184 183 178 176 174 164 153 146 140 136 135 138
202 208 218 213 211 209 196 191 208 213 207 199 195 207 215 208 207 211 211 215 217 209 190 200 232 235 228 228 228 232 231 226 222 211 206 211 213 212 210 207 207 205 205 206 205 207 208 207 210 213 213 210 209 207 202 198 195 196 199 202 205 208 209 206 201 196 194 193 193 197 200 199 195 190 186 185 182 180 180 175 167 162 156 150 150 158
205 207 217 211 212 212 202 197 210 214 209 200 194 202 210 200 208 219 208 211 218 213 210 212 225 233 228 226 230 230 227 227 223 211 205 210 213 211 210 207 206 205 203 205 208 209 209 209 211 212 213 211 210 209 205 201 198 198 201 204 207 210 211 210 205 199 195 193 194 199 202 201 198 194 191 189 185 183 183 180 176 175 174 170 172 177
210 215 221 209 208 213 207 196 193 210 210 206 201 200 203 195 203 236 228 218 219 218 225 225 228 234 231 229 233 234 234 233 229 217 209 212 212 210 209 204 202 204 202 202 205 204 203 206 211 214 216 213 210 210 208 204 201 200 203 207 209 210 212 212 209 205 200 196 196 201 204 203 199 196 195 193 189 188 186 184 184 187 188 188 188 188
213 222 233 222 215 216 208 198 198 206 205 208 208 205 201 187 185 226 236 222 221 226 231 231 233 234 231 230 232 234 236 234 231 223 212 209 207 203 201 198 198 200 201 204 205 204 204 205 208 214 218 217 215 214 211 208 206 204 205 208 210 212 213 213 212 209 205 201 200 203 207 205 200 198 198 197 195 192 191 190 195 202 202 200 199 195
198 215 233 231 224 218 207 204 212 212 203 208 214 213 209 187 173 210 230 219 211 227 239 240 240 239 233 231 231 233 235 234 232 227 218 212 209 203 198 195 196 196 199 205 204 204 208 207 206 212 216 217 219 218 216 213 210 209 210 211 214 215 215 216 215 213 210 207 206 208 210 209 203 200 200 201 200 197 197 198 204 213 215 210 205 200
181 219 234 234 227 218 206 207 215 212 207 204 207 215 212 198 192 202 206 208 200 213 237 243 244 244 241 237 235 236 236 232 230 228 221 216 214 211 207 201 199 199 202 202 196 199 206 206 206 212 215 216 218 219 220 218 214 213 215 216 218 220 220 219 218 215 212 211 212 213 214 214 208 203 202 201 201 201 202 204 209 218 224 220 212 207
173 228 240 240 234 224 211 212 217 213 211 208 203 212 209 202 213 208 194 193 193 207 233 239 238 241 241 239 239 241 242 236 232 229 223 221 222 222 220 215 210 210 213 208 195 196 202 205 210 215 216 216 216 216 217 217 215 216 218 220 221 224 225 225 222 219 216 215 217 218 219 219 214 208 205 203 203 203 205 208 211 218 224 224 220 217
169 223 247 245 237 226 212 211 216 215 217 220 214 208 200 195 215 216 197 185 182 203 233 240 238 236 235 235 238 241 242 239 234 229 227 227 228 227 226 224 224 224 227 223 205 196 197 204 214 219 219 218 217 218 219 217 213 215 219 220 221 225 229 231 229 225 222 218 218 221 223 224 221 214 210 208 206 206 207 210 213 218 223 224 224 225
169 189 233 244 230 223 216 210 210 209 210 218 216 204 194 192 200 210 200 186 174 193 236 246 244 243 239 236 236 237 240 241 236 229 227 227 227 229 227 226 227 230 233 233 224 213 206 204 212 221 225 226 225 226 226 222 221 223 223 219 218 223 228 231 231 231 229 223 219 221 224 226 225 220 214 213 213 211 209 211 216 221 223 225 226 227
170 171 190 239 229 219 216 209 205 203 199 202 207 206 202 200 196 195 198 191 180 200 242 245 244 249 248 240 236 237 241 244 239 228 224 225 226 228 228 227 228 231 234 235 233 231 225 218 218 224 229 232 230 228 225 223 226 231 232 227 223 224 227 230 231 233 233 228 222 221 223 226 227 225 220 217 218 218 215 213 218 224 227 228 228 228
181 181 180 200 212 185 201 212 209 207 205 201 201 202 201 202 204 195 197 198 199 223 241 240 242 248 246 242 241 243 246 249 243 229 223 226 228 229 230 228 228 231 234 234 234 235 234 232 233 231 230 230 228 228 226 219 217 223 231 234 231 228 230 233 235 237 238 236 231 226 224 225 227 227 224 222 221 222 222 219 220 225 230 232 233 231
193 194 191 190 191 187 204 215 213 210 213 211 207 201 191 191 193 196 209 207 202 218 236 237 240 243 243 243 244 245 248 250 245 231 222 225 228 231 232 230 227 227 229 233 234 235 234 234 237 238 236 235 233 233 230 219 213 217 224 231 231 230 231 233 237 240 243 246 243 236 231 227 227 228 227 225 225 225 226 226 225 227 231 234 236 236
201 202 206 204 207 217 218 215 210 209 210 208 207 203 195 190 187 193 208 205 197 208 228 230 232 237 241 244 243 244 245 243 240 231 223 224 226 230 234 234 230 225 222 226 231 235 236 235 237 239 238 239 241 241 239 232 228 227 228 230 232 231 230 230 233 236 239 244 246 245 241 234 228 229 229 228 229 229 229 230 229 230 233 235 237 239
208 207 210 205 199 214 220 213 207 207 207 203 202 204 203 198 193 196 203 200 196 208 219 221 225 230 234 239 240 241 243 244 241 234 225 223 224 226 231 235 235 228 222 222 226 231 236 237 238 239 237 238 241 242 241 240 240 242 241 239 238 237 235 233 232 232 234 237 235 235 243 241 231 227 229 230 231 231 232 233 233 233 235 236 238 241
212 212 212 208 205 208 206 204 205 207 211 211 208 210 207 202 201 201 202 203 202 209 218 220 223 226 227 232 236 237 240 244 241 233 226 224 223 225 228 232 235 233 228 227 226 229 234 237 239 239 237 237 239 239 237 235 236 239 243 245 244 243 240 237 234 232 233 235 228 220 228 238 236 229 226 228 231 232 232 234 236 237 237 238 240 241
206 210 212 210 214 215 206 205 207 204 207 211 214 217 213 207 208 206 203 207 209 212 219 222 223 227 229 230 234 236 237 238 236 231 225 222 222 224 225 228 231 232 232 233 233 233 235 238 242 243 241 239 239 240 238 236 238 238 237 240 242 244 242 238 235 233 234 236 232 223 223 230 235 230 224 223 227 231 233 234 235 238 240 240 240 241
204 206 211 210 215 220 215 214 212 203 199 201 212 218 215 211 214 211 205 209 213 215 219 220 222 227 231 232 232 232 232 233 233 230 225 222 222 223 223 226 229 230 232 234 237 239 239 240 241 243 245 243 244 245 241 237 239 240 235 233 235 239 240 236 234 233 233 232 230 228 226 227 230 229 225 222 224 227 230 232 233 236 238 241 241 241
205 205 210 211 214 218 218 218 215 208 206 212 220 221 217 214 214 213 213 217 221 221 222 222 223 226 229 231 232 231 231 232 231 230 227 224 224 224 224 225 227 230 232 233 236 240 242 243 243 242 244 244 245 246 242 236 236 240 238 232 230 231 232 232 233 231 230 229 229 230 228 227 230 231 228 224 223 226 229 230 231 233 235 239 241 242
211 213 217 217 218 222 224 223 221 218 218 224 229 227 223 219 217 218 220 225 229 228 227 227 227 229 231 232 234 237 237 235 235 235 234 231 230 230 228 227 228 229 231 232 234 237 241 244 246 245 245 245 245 245 242 237 234 237 237 230 229 231 230 230 230 228 227 227 229 232 234 234 235 235 234 232 228 228 230 229 229 231 233 236 240 242
219 220 220 220 222 228 231 229 229 231 228 227 231 232 228 225 224 224 223 226 229 228 229 231 232 234 235 235 237 240 241 239 239 240 240 237 234 234 233 231 231 231 232 233 234 236 238 241 243 244 246 247 247 246 244 240 237 236 235 230 231 236 237 235 233 232 231 230 231 233 236 239 236 228 229 237 237 234 237 239 235 232 232 234 236 239
221 222 221 221 222 227 232 230 230 234 234 231 235 237 234 230 230 229 227 227 228 228 229 233 234 236 237 237 239 239 240 241 242 243 244 241 237 235 234 234 233 233 234 234 234 236 238 240 242 242 244 247 249 249 247 244 241 239 238 236 234 235 237 236 235 235 237 239 239 237 235 238 235 226 225 235 239 239 244 249 246 238 234 234 234 236
220 222 223 222 215 214 233 234 231 233 236 236 235 235 234 232 232 234 234 231 229 229 230 234 238 240 240 241 242 240 239 241 242 242 243 242 239 237 236 235 234 234 235 235 235 236 237 239 242 244 244 245 247 249 248 245 243 241 239 238 237 237 237 237 234 234 236 239 241 240 236 236 236 235 236 239 239 239 241 245 247 243 238 235 234 235
219 220 223 221 204 199 231 238 232 229 233 236 236 236 236 236 235 237 239 237 233 233 233 235 239 241 241 242 243 242 241 240 239 240 241 240 240 239 237 237 236 236 236 236 236 236 236 238 241 244 245 245 245 248 247 244 244 243 240 239 240 240 241 240 237 235 235 237 238 239 237 236 236 240 243 242 239 237 238 240 242 240 238 235 234 235
217 220 223 216 197 202 229 239 233 230 234 237 239 239 240 240 239 240 242 242 239 236 235 235 236 237 239 242 243 243 242 240 237 238 240 240 241 240 239 239 239 237 236 236 236 237 237 238 239 241 244 245 246 247 247 245 246 246 245 243 242 243 243 243 243 241 238 238 239 238 236 234 234 236 239 239 236 235 237 241 242 241 241 241 242 244
213 217 217 210 203 213 229 237 235 236 238 239 239 238 237 239 239 239 242 243 241 238 237 237 236 237 239 241 241 240 242 243 242 240 239 240 241 241 240 240 240 239 238 237 236 236 237 238 239 240 242 244 245 247 248 247 246 248 249 247 245 245 245 245 246 246 244 241 239 239 238 237 234 232 234 237 236 234 236 241 245 246 246 247 248 252
218 218 215 210 212 220 230 236 239 241 242 240 238 236 237 239 240 240 242 244 242 241 241 241 240 240 240 241 241 240 242 246 247 244 241 240 240 241 242 241 241 240 241 240 238 237 238 238 239 241 241 242 243 244 247 248 247 248 249 250 250 248 247 247 248 249 248 245 241 238 237 238 238 236 235 237 239 238 236 238 243 246 247 246 244 246
226 226 225 224 225 226 231 235 236 240 245 244 240 238 238 238 238 237 239 243 244 241 241 242 242 242 242 244 246 245 244 247 247 244 243 243 241 241 244 245 244 243 243 243 242 242 242 240 240 241 242 243 243 242 243 246 248 248 248 250 252 251 250 250 250 250 250 249 246 241 237 236 237 239 239 239 239 238 235 235 239 242 243 242 240 240
231 230 230 231 233 234 235 235 233 237 245 248 244 241 239 239 239 238 238 242 243 240 240 242 242 242 243 245 248 247 245 247 248 245 245 246 245 243 244 246 247 246 245 245 245 245 246 244 243 243 243 243 244 243 242 243 245 247 247 248 250 252 253 253 252 252 252 252 250 247 243 238 235 236 240 242 242 238 236 237 238 237 239 240 237 237
235 235 234 234 236 237 238 238 236 239 245 249 248 246 245 244 243 241 239 242 244 243 242 242 242 243 243 245 247 247 247 249 250 249 248 248 247 245 245 245 247 248 248 248 247 246 246 246 246 245 244 244 244 245 244 243 243 245 246 247 248 249 251 253 254 253 253 254 253 251 248 243 238 236 238 241 243 244 242 241 240 238 240 241 237 237
239 238 238 238 239 240 240 240 240 242 244 247 250 252 250 247 246 246 245 246 248 248 246 245 244 245 244 244 246 248 249 250 251 250 251 250 249 248 247 246 246 248 250 250 249 248 247 247 247 246 246 246 245 245 245 245 244 244 245 246 246 247 249 251 253 254 254 254 254 252 250 247 243 240 240 242 244 246 246 243 241 239 239 238 238 240
243 242 242 241 241 242 244 243 243 245 246 247 248 251 251 251 252 253 252 251 250 250 250 249 249 248 247 247 248 249 250 250 250 250 251 252 252 251 250 249 248 250 250 251 250 249 249 249 248 247 246 246 246 246 246 246 246 245 245 245 245 245 246 248 250 253 254 254 254 252 250 249 247 245 245 246 247 248 248 246 243 242 240 237 239 242
245 245 244 244 242 242 243 244 245 248 250 248 247 248 251 253 254 254 253 253 252 251 251 251 250 249 250 251 251 251 250 250 250 251 251 252 253 253 252 251 251 251 251 251 251 251 251 251 251 249 248 247 246 246 247 247 246 246 246 246 246 245 245 245 247 250 252 253 254 254 252 250 249 248 249 250 251 251 251 250 248 247 244 241 241 244
245 244 245 247 247 245 245 247 250 252 254 253 252 251 251 253 253 254 254 255 254 253 252 252 251 250 250 252 253 252 252 252 252 252 252 252 253 254 254 253 252 252 252 252 252 252 252 252 252 251 251 249 248 247 247 247 247 247 247 247 247 247 246 245 245 246 248 250 252 254 253 252 251 250 251 253 255 255 254 253 252 251 249 245 245 246
247 245 245 246 247 248 248 248 250 252 254 254 254 253 253 252 254 256 257 256 256 255 254 253 253 252 250 250 252 253 253 254 254 254 253 253 253 255 255 254 253 252 252 252 252 253 253 253 253 252 252 252 250 249 248 247 247 248 248 248 247 247 247 246 245 245 246 248 249 251 252 253 252 251 250 252 254 256 257 257 257 257 255 251 248 248
249 247 246 246 247 249 250 249 249 250 252 255 255 255 255 254 254 255 256 256 256 255 254 254 254 254 252 252 253 254 254 254 254 254 255 254 254 255 256 256 256 255 254 253 252 252 253 253 254 253 253 253 253 252 251 250 248 248 248 249 249 248 247 247 247 246 246 247 248 249 250 251 252 252 251 251 252 254 256 258 260 261 261 259 256 252
251 250 248 249 249 250 252 253 252 252 254 256 257 257 257 255 253 253 254 256 256 256 255 255 255 255 255 254 253 254 255 255 254 254 254 254 255 256 257 257 257 257 257 256 254 253 252 252 253 254 254 254 254 253 253 252 251 250 249 249 249 249 249 248 248 247 247 247 248 248 249 249 250 250 251 251 251 251 252 255 257 260 262 263 263 261
256 254 252 250 249 250 252 253 255 255 254 254 255 256 257 257 256 254 254 256 257 257 256 255 255 256 256 256 255 254 255 255 255 254 254 254 254 255 257 258 258 259 259 259 257 256 254 253 253 253 253 253 254 254 253 253 253 253 251 250 250 250 250 250 249 248 248 248 248 248 249 249 249 249 249 250 250 251 251 252 255 257 260 262 264 265
259 257 256 255 254 253 253 254 255 256 255 255 255 256 258 260 260 259 257 255 256 258 257 256 256 256 256 256 255 254 254 255 255 255 255 255 254 254 256 258 259 259 260 260 260 259 258 256 254 254 253 253 253 253 253 253 254 254 253 253 252 251 250 250 250 250 249 249 248 249 249 250 249 249 249 249 249 250 251 252 253 255 257 260 262 264
263 262 262 262 262 261 260 259 259 258 257 257 257 257 258 260 261 262 262 259 257 257 257 257 256 255 255 256 255 254 254 254 254 254 255 255 255 255 256 257 259 260 261 261 262 262 261 260 258 256 255 254 254 254 254 254 254 254 254 253 253 252 251 250 250 250 250 250 249 249 249 250 250 249 249 249 249 249 250 251 252 253 255 257 259 261
Height
5849 5851 5852 5855 5858 5862 5866 5869 5871 5871 5873 5877 5879 5879 5880 5881 5880 5882 5885 5886 5887 5889 5890 5891 5891 5891 5891 5892 5892 5893 5896 5898 5899 5902 5903 5904 5905 5906 5908 5910 5911 5912 5913 5914 5915 5916 5917 5918 5920 5921 5923 5924 5926 5927 5928 5930 5931 5932 5933 5934 5935 5936 5937 5938 5940 5941 5941 5942 5942 5943 5943 5944 5944 5945 5945 5946 5946 5946 5945 5945 5945 5945 5946 5946 5947 5948
5846 5848 5851 5855 5858 5861 5864 5867 5868 5869 5870 5873 5876 5877 5878 5880 5880 5880 5883 5885 5886 5887 5889 5890 5889 5890 5891 5891 5891 5893 5897 5898 5899 5902 5903 5904 5905 5906 5907 5909 5910 5912 5913 5914 5915 5916 5917 5918 5920 5921 5923 5924 5926 5927 5928 5930 5931 5932 5933 5934 5935 5936 5937 5939 5940 5941 5942 5942 5943 5943 5944 5945 5946 5946 5947 5947 5947 5948 5947 5947 5947 5947 5947 5947 5948 5949
5844 5847 5850 5853 5856 5859 5862 5863 5865 5867 5870 5873 5875 5876 5877 5879 5879 5879 5882 5884 5885 5886 5887 5888 5888 5889 5892 5891 5890 5893 5895 5897 5899 5901 5901 5902 5904 5905 5907 5909 5910 5912 5913 5914 5915 5916 5917 5918 5919 5921 5923 5924 5926 5927 5928 5930 5931 5933 5934 5935 5936 5937 5938 5939 5940 5941 5942 5943 5944 5944 5945 5946 5947 5948 5948 5948 5949 5950 5950 5950 5949 5949 5949 5949 5950 5951
5842 5846 5849 5852 5854 5856 5858 5860 5863 5865 5868 5871 5873 5874 5876 5878 5879 5879 5881 5883 5884 5886 5886 5886 5887 5888 5891 5891 5890 5892 5894 5895 5897 5899 5900 5901 5902 5904 5906 5908 5910 5912 5913 5914 5915 5916 5917 5918 5919 5921 5922 5924 5925 5927 5928 5930 5931 5932 5934 5935 5936 5937 5938 5939 5940 5941 5942 5943 5944 5945 5946 5947 5948 5949 5949 5950 5951 5951 5951 5951 5951 5951 5951 5950 5951 5952
5841 5845 5848 5850 5852 5854 5856 5858 5861 5863 5866 5868 5871 5873 5875 5877 5879 5879 5880 5881 5883 5884 5885 5886 5886 5887 5890 5890 5891 5892 5893 5894 5896 5898 5900 5901 5903 5904 5906 5907 5909 5911 5912 5913 5915 5916 5917 5918 5919 5920 5922 5923 5925 5926 5928 5929 5931 5932 5934 5935 5936 5937 5938 5939 5940 5941 5943 5944 5945 5946 5947 5948 5948 5949 5950 5951 5951 5952 5952 5952 5953 5953 5953 5953 5953 5954
5839 5842 5844 5847 5850 5853 5855 5856 5858 5861 5865 5868 5870 5872 5874 5876 5879 5878 5878 5881 5882 5884 5885 5886 5886 5887 5888 5889 5891 5892 5893 5894 5896 5897 5898 5900 5902 5904 5905 5906 5908 5910 5912 5913 5914 5915 5917 5918 5919 5920 5922 5923 5924 5926 5927 5929 5930 5932 5933 5935 5936 5937 5938 5938 5939 5941 5942 5944 5945 5946 5947 5948 5949 5949 5950 5951 5952 5952 5953 5954 5954 5954 5954 5954 5954 5955
5837 5839 5841 5844 5847 5849 5851 5853 5856 5860 5864 5867 5869 5871 5872 5874 5877 5877 5878 5880 5882 5882 5884 5886 5886 5885 5886 5888 5889 5891 5892 5893 5894 5896 5897 5899 5901 5903 5904 5905 5908 5910 5911 5912 5914 5915 5916 5918 5919 5920 5921 5922 5924 5925 5927 5929 5930 5932 5933 5934 5936 5937 5937 5938 5939 5941 5942 5944 5945 5947 5948 5948 5949 5950 5950 5951 5952 5953 5954 5954 5955 5955 5956 5956 5956 5957
5834 5837 5839 5841 5843 5846 5849 5852 5855 5858 5861 5865 5870 5871 5871 5872 5874 5875 5878 5881 5882 5882 5883 5885 5885 5883 5885 5887 5888 5889 5890 5892 5893 5894 5896 5899 5900 5901 5904 5906 5907 5909 5911 5912 5913 5915 5916 5917 5919 5920 5921 5922 5924 5925 5927 5929 5930 5932 5933 5934 5935 5936 5937 5938 5939 5941 5942 5944 5945 5947 5948 5949 5949 5950 5951 5952 5953 5954 5955 5955 5956 5956 5957 5957 5958 5958
5833 5835 5836 5838 5840 5843 5847 5850 5854 5856 5859 5865 5869 5869 5870 5871 5873 5875 5878 5881 5882 5881 5881 5883 5883 5883 5885 5886 5887 5888 5888 5890 5892 5894 5896 5898 5898 5899 5902 5905 5907 5908 5910 5911 5913 5914 5915 5916 5918 5919 5921 5922 5924 5925 5927 5928 5930 5931 5933 5934 5935 5936 5937 5938 5939 5941 5942 5944 5945 5946 5947 5949 5950 5951 5952 5952 5953 5954 5955 5956 5956 5957 5958 5958 5959 5960
5832 5832 5832 5835 5838 5841 5844 5848 5852 5854 5858 5862 5864 5866 5869 5870 5871 5873 5876 5878 5879 5879 5881 5883 5883 5883 5885 5885 5886 5887 5888 5889 5889 5891 5894 5896 5898 5898 5900 5903 5906 5907 5908 5910 5912 5913 5914 5915 5917 5919 5920 5922 5923 5925 5926 5928 5929 5931 5932 5934 5935 5936 5937 5938 5939 5940 5942 5943 5945 5946 5947 5949 5950 5951 5952 5953 5954 5955 5955 5956 5957 5958 5959 5959 5960 5961
5830 5829 5829 5832 5837 5840 5843 5847 5849 5851 5855 5858 5861 5865 5868 5868 5869 5871 5872 5874 5876 5877 5880 5883 5882 5882 5884 5885 5885 5886 5887 5888 5888 5889 5892 5895 5897 5898 5899 5903 5905 5905 5907 5908 5910 5912 5913 5915 5916 5918 5920 5921 5923 5924 5925 5927 5928 5930 5932 5933 5934 5935 5936 5937 5939 5940 5942 5943 5945 5946 5947 5948 5950 5951 5952 5953 5954 5955 5956 5957 5957 5959 5959 5960 5961 5962
5825 5826 5826 5829 5833 5836 5840 5845 5848 5849 5852 5855 5859 5864 5865 5866 5868 5869 5871 5873 5874 5875 5880 5883 5881 5880 5882 5882 5884 5885 5886 5887 5887 5888 5890 5893 5896 5898 5899 5902 5903 5905 5906 5907 5908 5911 5913 5914 5916 5918 5919 5921 5922 5924 5925 5926 5928 5929 5931 5932 5934 5935 5936 5937 5938 5940 5941 5943 5944 5945 5947 5948 5949 5951 5952 5953 5954 5955 5956 5957 5958 5959 5960 5961 5961 5962
5820 5822 5822 5826 5830 5833 5837 5842 5843 5845 5849 5853 5857 5860 5862 5864 5867 5868 5870 5872 5873 5875 5880 5882 5879 5877 5879 5880 5882 5884 5885 5885 5885 5886 5889 5891 5894 5896 5898 5900 5902 5903 5905 5907 5909 5910 5912 5913 5915 5917 5918 5920 5922 5923 5924 5926 5927 5929 5930 5932 5933 5934 5935 5937 5938 5939 5940 5942 5943 5945 5946 5947 5949 5950 5952 5953 5954 5956 5957 5958 5958 5959 5960 5961 5961 5962
5819 5820 5820 5823 5828 5829 5832 5838 5841 5843 5847 5850 5853 5857 5859 5862 5865 5866 5869 5871 5873 5877 5878 5878 5876 5875 5877 5879 5881 5883 5884 5884 5885 5886 5888 5889 5892 5894 5897 5899 5900 5901 5904 5907 5909 5910 5911 5913 5914 5916 5918 5919 5921 5923 5924 5925 5927 5928 5930 5931 5932 5933 5935 5936 5937 5939 5940 5941 5943 5944 5945 5947 5949 5950 5951 5953 5954 5955 5957 5958 5959 5959 5960 5960 5961 5962
5818 5819 5820 5823 5826 5826 5829 5835 5839 5841 5845 5848 5851 5855 5857 5861 5866 5868 5870 5872 5875 5878 5877 5875 5874 5874 5876 5878 5879 5880 5882 5883 5884 5885 5887 5889 5891 5893 5895 5897 5899 5901 5904 5906 5907 5908 5910 5911 5913 5915 5917 5919 5920 5922 5923 5924 5926 5927 5929 5930 5931 5933 5934 5936 5937 5938 5939 5941 5942 5943 5945 5946 5948 5950 5951 5952 5954 5955 5957 5958 5959 5959 5960 5960 5961 5962
5819 5822 5821 5821 5823 5824 5828 5833 5834 5837 5843 5846 5848 5851 5855 5860 5866 5870 5872 5873 5876 5878 5876 5873 5871 5871 5874 5876 5877 5878 5879 5881 5882 5884 5886 5888 5890 5892 5893 5895 5898 5901 5903 5903 5905 5908 5910 5910 5912 5914 5916 5918 5920 5921 5922 5924 5925 5926 5928 5929 5930 5932 5933 5935 5936 5937 5939 5940 5941 5943 5944 5946 5948 5949 5951 5952 5953 5955 5956 5958 5959 5959 5960 5960 5961 5961
5820 5822 5817 5816 5820 5824 5829 5831 5831 5836 5842 5844 5846 5850 5854 5858 5863 5869 5871 5872 5876 5878 5873 5871 5870 5870 5872 5874 5875 5876 5876 5878 5879 5882 5886 5888 5889 5890 5892 5894 5896 5899 5902 5902 5903 5908 5910 5909 5911 5913 5915 5917 5918 5920 5921 5922 5924 5926 5927 5928 5930 5931 5933 5934 5935 5937 5939 5940 5941 5942 5943 5945 5947 5948 5950 5951 5953 5955 5956 5957 5958 5959 5960 5960 5961 5962
5818 5818 5813 5814 5819 5821 5825 5827 5828 5834 5839 5842 5845 5848 5852 5857 5859 5863 5866 5867 5873 5875 5870 5868 5869 5869 5871 5872 5874 5874 5874 5876 5878 5880 5885 5887 5888 5889 5890 5892 5894 5897 5899 5901 5903 5906 5907 5908 5910 5913 5914 5916 5917 5918 5920 5921 5923 5925 5926 5928 5929 5930 5932 5933 5934 5936 5938 5939 5940 5942 5943 5944 5946 5947 5949 5951 5952 5954 5955 5957 5958 5959 5960 5960 5961 5962
5813 5814 5811 5813 5817 5818 5822 5825 5828 5833 5836 5837 5841 5844 5850 5856 5857 5858 5861 5864 5870 5872 5868 5865 5866 5868 5869 5870 5871 5872 5873 5874 5875 5879 5883 5885 5886 5887 5889 5891 5893 5894 5896 5898 5901 5903 5905 5907 5910 5912 5913 5913 5914 5915 5917 5918 5920 5923 5925 5927 5929 5930 5931 5932 5934 5935 5937 5938 5940 5941 5942 5943 5945 5947 5948 5950 5951 5953 5954 5956 5957 5958 5959 5960 5961 5962
5810 5811 5809 5811 5814 5815 5819 5823 5827 5832 5835 5836 5841 5846 5850 5854 5854 5857 5860 5863 5867 5870 5866 5862 5863 5864 5866 5868 5868 5869 5870 5870 5873 5878 5881 5884 5885 5886 5888 5890 5891 5893 5894 5897 5899 5902 5905 5908 5909 5910 5910 5910 5913 5916 5918 5919 5920 5921 5923 5925 5927 5929 5930 5932 5933 5934 5935 5937 5938 5940 5941 5942 5944 5946 5947 5949 5950 5951 5953 5955 5956 5957 5958 5960 5961 5961
5807 5810 5809 5808 5810 5812 5816 5822 5825 5829 5833 5837 5841 5845 5847 5849 5851 5855 5859 5861 5864 5868 5865 5860 5861 5863 5865 5866 5865 5865 5867 5869 5873 5877 5879 5882 5884 5885 5887 5889 5891 5892 5893 5896 5899 5901 5904 5907 5908 5908 5909 5911 5914 5918 5921 5923 5924 5923 5922 5923 5925 5927 5929 5930 5932 5933 5934 5935 5937 5938 5940 5941 5943 5945 5946 5947 5949 5950 5952 5953 5955 5956 5957 5958 5960 5961
5803 5807 5808 5807 5808 5812 5815 5818 5820 5824 5828 5832 5838 5842 5845 5848 5850 5853 5858 5861 5863 5864 5861 5858 5860 5862 5863 5864 5864 5865 5866 5868 5872 5875 5876 5880 5882 5884 5886 5888 5890 5891 5893 5896 5899 5900 5902 5905 5906 5908 5909 5912 5913 5915 5917 5919 5922 5924 5925 5924 5923 5925 5927 5928 5930 5931 5933 5934 5935 5937 5938 5939 5941 5943 5945 5946 5947 5949 5950 5952 5953 5955 5956 5957 5958 5960
5799 5803 5805 5806 5809 5812 5813 5814 5817 5822 5824 5827 5832 5838 5843 5847 5851 5855 5858 5860 5861 5859 5855 5856 5858 5857 5859 5861 5863 5865 5866 5866 5869 5872 5874 5877 5880 5882 5884 5886 5888 5890 5892 5894 5897 5899 5901 5903 5905 5906 5908 5910 5911 5911 5912 5913 5915 5919 5922 5923 5922 5923 5925 5927 5929 5930 5932 5933 5935 5936 5937 5938 5939 5941 5943 5945 5946 5947 5949 5950 5952 5953 5955 5956 5957 5959
5800 5802 5802 5804 5807 5810 5811 5813 5817 5822 5825 5828 5831 5835 5839 5842 5845 5848 5849 5851 5855 5853 5850 5853 5853 5852 5855 5857 5859 5863 5864 5864 5866 5869 5872 5875 5878 5879 5881 5883 5885 5887 5889 5892 5894 5896 5898 5901 5903 5904 5906 5907 5908 5909 5910 5911 5911 5913 5916 5919 5919 5920 5923 5925 5927 5928 5931 5933 5935 5936 5936 5937 5938 5940 5941 5943 5945 5946 5947 5949 5951 5952 5953 5955 5956 5958
5800 5799 5800 5803 5806 5809 5810 5812 5815 5819 5822 5827 5831 5833 5834 5835 5837 5838 5839 5845 5852 5851 5847 5847 5848 5849 5851 5853 5856 5859 5860 5862 5864 5867 5870 5873 5875 5877 5878 5881 5883 5885 5887 5889 5891 5893 5896 5898 5900 5902 5903 5904 5905 5907 5909 5911 5912 5913 5914 5915 5915 5917 5919 5921 5923 5925 5928 5930 5932 5935 5937 5937 5937 5938 5940 5941 5943 5945 5946 5948 5949 5951 5952 5954 5955 5956
5796 5795 5798 5802 5805 5808 5809 5810 5812 5816 5818 5821 5824 5827 5829 5832 5835 5836 5838 5843 5847 5845 5841 5841 5843 5846 5848 5850 5852 5855 5857 5860 5863 5865 5868 5871 5872 5874 5876 5878 5880 5882 5884 5886 5888 5890 5893 5895 5897 5899 5901 5902 5903 5905 5907 5909 5911 5913 5914 5913 5913 5915 5917 5918 5920 5922 5924 5926 5927 5930 5934 5936 5937 5937 5938 5940 5941 5943 5945 5946 5948 5949 5951 5952 5954 5955
5793 5795 5798 5800 5802 5803 5804 5806 5810 5813 5816 5819 5821 5823 5827 5830 5832 5834 5837 5841 5841 5840 5838 5839 5841 5843 5845 5847 5849 5851 5854 5858 5860 5862 5866 5868 5869 5871 5873 5875 5877 5879 5881 5883 5885 5888 5889 5892 5894 5895 5897 5899 5902 5903 5904 5906 5908 5909 5911 5911 5912 5913 5914 5916 5918 5920 5923 5924 5925 5926 5928 5932 5935 5936 5936 5937 5938 5940 5942 5945 5946 5948 5949 5951 5953 5954
5792 5795 5797 5799 5800 5801 5802 5804 5807 5811 5814 5818 5820 5821 5824 5827 5828 5833 5837 5838 5837 5837 5836 5838 5840 5840 5842 5844 5846 5849 5852 5855 5857 5859 5862 5865 5866 5868 5871 5873 5874 5876 5878 5880 5882 5884 5887 5889 5891 5892 5894 5897 5899 5900 5901 5903 5904 5906 5907 5909 5910 5912 5913 5915 5917 5919 5921 5923 5925 5925 5925 5928 5931 5933 5933 5933 5935 5937 5940 5942 5944 5946 5947 5949 5950 5952
5792 5794 5795 5796 5798 5799 5801 5803 5806 5809 5810 5812 5814 5815 5820 5825 5828 5833 5835 5832 5832 5834 5834 5836 5838 5837 5838 5841 5844 5847 5850 5852 5854 5857 5859 5862 5863 5865 5868 5870 5872 5874 5876 5877 5879 5881 5883 5886 5888 5890 5892 5894 5895 5896 5898 5899 5901 5902 5904 5905 5908 5910 5911 5913 5914 5916 5918 5920 5922 5924 5924 5925 5928 5930 5930 5930 5931 5933 5935 5938 5941 5943 5945 5946 5948 5950
5789 5789 5790 5792 5794 5796 5799 5802 5804 5806 5807 5808 5810 5813 5817 5822 5825 5828 5829 5827 5828 5832 5835 5836 5836 5834 5835 5837 5841 5845 5848 5849 5851 5854 5857 5859 5860 5862 5865 5867 5869 5872 5873 5875 5876 5878 5880 5882 5885 5887 5889 5891 5892 5893 5895 5897 5898 5899 5901 5903 5905 5906 5907 5909 5910 5912 5914 5917 5918 5921 5923 5925 5928 5930 5930 5929 5930 5931 5932 5934 5936 5939 5942 5943 5945 5947
5785 5786 5788 5791 5794 5796 5798 5799 5802 5804 5805 5806 5808 5810 5814 5818 5820 5822 5823 5824 5826 5829 5832 5833 5832 5831 5832 5835 5839 5843 5844 5846 5848 5851 5854 5856 5858 5860 5862 5864 5866 5868 5870 5872 5874 5875 5877 5878 5880 5882 5884 5887 5889 5891 5893 5894 5895 5896 5898 5901 5902 5903 5904 5905 5906 5908 5911 5914 5916 5919 5921 5923 5925 5928 5930 5931 5931 5931 5932 5931 5932 5935 5938 5940 5942 5944
5783 5785 5787 5791 5793 5794 5795 5798 5799 5800 5802 5805 5806 5807 5810 5814 5816 5818 5820 5821 5823 5825 5827 5828 5828 5828 5830 5834 5838 5840 5840 5843 5846 5848 5850 5853 5855 5857 5858 5860 5862 5864 5866 5868 5870 5872 5874 5875 5877 5878 5880 5882 5884 5886 5889 5890 5892 5893 5895 5898 5899 5901 5903 5904 5904 5905 5907 5911 5914 5918 5921 5922 5922 5923 5926 5929 5930 5931 5932 5931 5931 5932 5934 5937 5938 5940
5781 5783 5785 5788 5791 5792 5793 5794 5796 5797 5800 5803 5803 5804 5806 5810 5812 5814 5815 5816 5819 5822 5824 5823 5822 5825 5828 5831 5833 5836 5837 5840 5843 5845 5846 5849 5851 5853 5855 5857 5859 5860 5862 5865 5867 5869 5871 5872 5874 5875 5877 5878 5879 5881 5884 5886 5888 5890 5893 5896 5897 5897 5899 5901 5900 5901 5904 5907 5910 5914 5917 5919 5919 5919 5921 5924 5926 5928 5930 5930 5930 5931 5932 5933 5935 5936
5780 5782 5783 5786 5789 5790 5789 5790 5793 5796 5798 5798 5798 5800 5803 5806 5809 5811 5810 5812 5816 5819 5820 5820 5820 5823 5826 5827 5828 5831 5834 5837 5839 5841 5842 5844 5846 5849 5851 5853 5855 5857 5859 5861 5863 5865 5867 5869 5870 5872 5873 5875 5876 5877 5879 5881 5883 5885 5889 5892 5894 5894 5896 5897 5897 5899 5901 5903 5905 5909 5911 5913 5915 5916 5918 5920 5921 5923 5925 5926 5927 5928 5928 5929 5929 5931
5778 5779 5781 5784 5787 5787 5786 5787 5791 5793 5792 5792 5795 5799 5801 5804 5807 5807 5806 5808 5813 5815 5817 5818 5818 5820 5821 5821 5823 5827 5830 5831 5834 5835 5837 5839 5841 5843 5846 5849 5851 5853 5855 5857 5859 5861 5863 5865 5867 5868 5870 5872 5873 5874 5875 5877 5878 5881 5884 5887 5890 5892 5894 5895 5895 5897 5899 5900 5902 5904 5906 5908 5910 5912 5913 5915 5916 5917 5918 5919 5920 5921 5923 5923 5924 5926
5776 5777 5779 5782 5784 5784 5784 5785 5788 5789 5789 5791 5795 5797 5799 5801 5802 5803 5804 5805 5808 5811 5813 5813 5814 5816 5817 5817 5820 5823 5822 5824 5829 5831 5832 5835 5836 5838 5842 5845 5847 5849 5851 5853 5855 5857 5859 5861 5863 5864 5866 5868 5870 5871 5873 5874 5875 5877 5879 5883 5885 5888 5890 5892 5893 5894 5896 5898 5899 5901 5902 5904 5905 5906 5907 5909 5910 5911 5911 5913 5915 5918 5920 5923 5925 5926
5774 5775 5777 5780 5781 5782 5782 5783 5785 5786 5788 5790 5792 5793 5795 5795 5797 5799 5801 5800 5802 5805 5807 5809 5811 5813 5813 5814 5816 5817 5817 5820 5824 5825 5827 5830 5832 5833 5837 5841 5842 5844 5846 5848 5851 5853 5855 5857 5859 5860 5862 5864 5865 5867 5869 5870 5872 5873 5875 5877 5880 5883 5885 5887 5889 5890 5892 5894 5895 5897 5899 5899 5900 5902 5903 5904 5905 5906 5907 5910 5915 5918 5921 5925 5927 5928
5773 5774 5776 5777 5778 5780 5781 5782 5783 5784 5784 5785 5786 5789 5791 5792 5794 5797 5797 5795 5797 5801 5803 5805 5808 5809 5810 5810 5809 5812 5817 5818 5816 5817 5821 5825 5828 5831 5833 5836 5838 5840 5842 5844 5847 5849 5850 5852 5854 5855 5857 5859 5861 5863 5864 5866 5868 5869 5870 5872 5875 5877 5880 5882 5884 5886 5888 5890 5892 5893 5895 5896 5896 5898 5899 5900 5901 5903 5906 5909 5913 5916 5919 5921 5924 5926
5771 5773 5774 5775 5776 5777 5778 5780 5781 5781 5780 5781 5783 5786 5789 5790 5791 5793 5793 5790 5792 5797 5799 5801 5803 5804 5805 5805 5805 5810 5815 5811 5806 5811 5817 5819 5824 5829 5830 5831 5833 5836 5837 5839 5842 5844 5845 5847 5849 5850 5852 5854 5856 5858 5860 5862 5864 5865 5867 5868 5869 5871 5874 5876 5879 5881 5883 5885 5887 5889 5891 5892 5893 5894 5894 5895 5897 5901 5904 5907 5910 5911 5913 5916 5918 5920
5770 5771 5772 5773 5774 5775 5776 5778 5778 5778 5777 5778 5781 5783 5785 5786 5788 5789 5788 5787 5789 5793 5795 5796 5797 5799 5800 5802 5802 5805 5806 5803 5803 5810 5813 5814 5819 5825 5825 5826 5827 5829 5831 5834 5837 5838 5839 5842 5845 5845 5846 5849 5850 5851 5855 5858 5859 5860 5862 5864 5865 5866 5868 5870 5873 5876 5878 5880 5882 5884 5886 5887 5889 5890 5890 5890 5892 5896 5899 5902 5904 5905 5907 5910 5913 5915
5768 5769 5770 5771 5772 5772 5773 5775 5775 5774 5774 5776 5777 5779 5781 5783 5783 5783 5783 5783 5785 5789 5791 5792 5792 5794 5797 5799 5798 5797 5799 5800 5802 5806 5808 5809 5814 5817 5818 5820 5821 5822 5825 5827 5830 5832 5834 5837 5838 5839 5841 5843 5844 5846 5849 5852 5853 5854 5857 5859 5861 5862 5863 5865 5867 5869 5872 5874 5876 5878 5880 5882 5883 5885 5886 5886 5887 5890 5893 5896 5898 5899 5902 5906 5908 5909
5765 5766 5767 5768 5769 5769 5770 5772 5771 5770 5771 5773 5774 5775 5777 5778 5778 5778 5780 5782 5783 5785 5786 5787 5789 5791 5793 5794 5792 5792 5796 5798 5798 5799 5801 5804 5807 5809 5811 5814 5816 5817 5818 5820 5822 5826 5829 5830 5831 5833 5835 5837 5838 5841 5843 5845 5847 5849 5851 5853 5855 5858 5859 5860 5861 5863 5865 5868 5870 5872 5874 5875 5877 5879 5881 5882 5883 5885 5888 5891 5893 5895 5898 5901 5903 5905
5762 5764 5765 5765 5766 5767 5767 5768 5767 5766 5768 5770 5771 5771 5772 5773 5774 5776 5777 5778 5778 5780 5781 5783 5785 5787 5787 5788 5788 5789 5792 5792 5792 5793 5796 5798 5799 5801 5804 5808 5810 5810 5811 5813 5816 5819 5822 5823 5825 5827 5828 5830 5832 5835 5836 5838 5841 5843 5844 5847 5849 5852 5854 5855 5856 5858 5860 5862 5865 5867 5868 5870 5871 5873 5875 5877 5878 5880 5883 5886 5888 5891 5894 5896 5898 5900
5760 5761 5762 5762 5763 5763 5763 5763 5763 5763 5765 5766 5767 5767 5769 5771 5771 5771 5771 5772 5773 5775 5776 5777 5780 5781 5782 5783 5784 5785 5785 5786 5787 5789 5791 5792 5793 5795 5798 5801 5803 5803 5805 5807 5809 5812 5814 5816 5818 5820 5821 5824 5826 5828 5829 5832 5834 5836 5838 5840 5842 5845 5848 5850 5851 5853 5855 5857 5859 5861 5863 5865 5866 5868 5870 5871 5873 5875 5877 5880 5883 5885 5888 5891 5893 5894
5756 5757 5759 5759 5759 5760 5760 5760 5760 5761 5761 5762 5762 5764 5766 5767 5766 5766 5767 5768 5769 5770 5771 5772 5774 5776 5777 5777 5777 5778 5779 5781 5782 5785 5786 5787 5788 5789 5791 5793 5795 5797 5799 5800 5803 5805 5807 5808 5811 5813 5814 5817 5819 5821 5823 5825 5827 5829 5831 5833 5835 5837 5840 5842 5845 5847 5849 5851 5853 5855 5857 5859 5861 5863 5865 5866 5867 5869 5871 5874 5877 5879 5883 5886 5887 5889
5753 5754 5755 5755 5755 5756 5756 5756 5757 5757 5757 5757 5758 5760 5761 5762 5762 5762 5763 5763 5764 5765 5767 5768 5768 5770 5771 5771 5771 5772 5774 5776 5777 5778 5780 5782 5783 5783 5784 5785 5788 5790 5792 5794 5796 5798 5799 5801 5803 5805 5807 5809 5811 5813 5816 5818 5820 5822 5824 5826 5828 5830 5832 5835 5838 5840 5843 5845 5847 5849 5851 5852 5855 5857 5859 5861 5862 5864 5865 5868 5870 5872 5875 5879 5882 5884
5749 5751 5751 5751 5752 5752 5752 5752 5753 5753 5753 5753 5754 5755 5756 5757 5758 5758 5757 5758 5759 5761 5762 5764 5764 5764 5765 5766 5767 5767 5769 5770 5771 5772 5774 5776 5777 5777 5778 5779 5781 5783 5785 5788 5790 5792 5793 5794 5796 5797 5800 5802 5803 5806 5808 5810 5812 5814 5816 5818 5819 5822 5824 5827 5830 5832 5835 5837 5839 5842 5844 5846 5848 5850 5853 5855 5857 5859 5860 5862 5864 5866 5868 5871 5874 5877
5745 5747 5748 5748 5748 5748 5748 5748 5748 5749 5750 5750 5749 5750 5751 5752 5753 5753 5753 5753 5754 5756 5757 5758 5759 5759 5760 5761 5762 5763 5763 5764 5765 5767 5768 5769 5771 5772 5772 5773 5774 5776 5778 5780 5782 5785 5787 5788 5789 5790 5792 5794 5796 5798 5800 5802 5804 5806 5808 5810 5811 5813 5816 5819 5822 5824 5827 5829 5831 5833 5836 5838 5840 5843 5846 5848 5850 5852 5855 5857 5858 5859 5861 5863 5865 5869
5741 5743 5743 5743 5743 5743 5743 5743 5744 5744 5745 5745 5745 5745 5745 5746 5747 5748 5749 5749 5749 5750 5751 5752 5753 5754 5754 5755 5757 5759 5759 5759 5760 5761 5762 5764 5766 5766 5766 5766 5768 5770 5771 5772 5774 5776 5779 5781 5782 5784 5785 5787 5788 5790 5792 5794 5796 5798 5800 5802 5804 5806 5808 5810 5813 5816 5819 5821 5823 5825 5827 5829 5832 5836 5838 5840 5842 5845 5848 5851 5852 5854 5855 5856 5858 5860
5737 5737 5737 5737 5738 5738 5738 5738 5739 5739 5740 5740 5740 5740 5741 5741 5741 5742 5744 5745 5745 5744 5745 5747 5747 5748 5748 5749 5751 5753 5753 5753 5755 5756 5757 5758 5760 5761 5761 5761 5762 5763 5764 5765 5766 5768 5770 5773 5775 5777 5778 5780 5781 5783 5784 5786 5788 5789 5791 5793 5796 5798 5800 5802 5804 5807 5810 5812 5814 5816 5818 5820 5823 5827 5830 5832 5834 5837 5840 5843 5845 5847 5849 5850 5851 5852
5732 5732 5732 5733 5733 5732 5732 5732 5733 5735 5735 5735 5735 5735 5736 5736 5736 5736 5737 5738 5739 5739 5740 5740 5741 5742 5742 5743 5745 5746 5747 5748 5749 5750 5751 5753 5754 5755 5756 5756 5757 5757 5758 5758 5759 5760 5762 5764 5766 5768 5770 5772 5773 5775 5777 5778 5780 5781 5783 5785 5787 5789 5791 5794 5796 5799 5801 5803 5806 5808 5810 5812 5814 5817 5821 5824 5826 5829 5831 5834 5837 5840 5842 5843 5844 5845